Back to catalog

KAZEOSAT 1

AliveScienceSSO
NORAD 39731·PAYLOAD·🇰🇿 Kazakhstan

Launched Apr 30, 2014 from Guiana Space Centre

Loading…

Next Passes (next 24 hours)

TLE

FreshSource: Space-Track

Epoch: Sep 14, 2026, 14:22 UTC

1 39731U 14024A   26257.59892052  .00000181  00000-0  68236-4 0  9995
2 39731  98.3135 327.7851 0001409  91.8292 268.3059 14.42064044651444

Track KAZEOSAT 1 in real time with AllMySat

Download on the App Store